CDT,Max TemperatureF,Mean TemperatureF,Min TemperatureF,Max Dew PointF,MeanDew PointF,Min DewpointF,Max Humidity, Mean Humidity, Min Humidity, Max Sea Level PressureIn, Mean Sea Level PressureIn, Min Sea Level PressureIn, Max VisibilityMiles, Mean VisibilityMiles, Min VisibilityMiles, Max Wind SpeedMPH, Mean Wind SpeedMPH, Max Gust SpeedMPH,PrecipitationIn, CloudCover, Events, WindDirDegrees
2011-10-1,62,50,37,39,36,32,87,63,37,30.37,30.29,30.21,10,10,10,13,8,17,0.00,0,,7
2011-10-2,69,50,30,45,37,28,93,70,33,30.32,30.26,30.19,10,8,0,10,1,,0.00,1,,298
2011-10-3,78,58,37,50,43,34,93,65,34,30.26,30.22,30.18,10,9,2,9,2,16,0.00,0,,342
2011-10-4,78,60,41,50,44,37,93,63,32,30.33,30.26,30.21,10,10,2,6,3,,0.00,0,,131
2011-10-5,82,63,44,52,46,39,93,60,30,30.27,30.21,29.80,10,10,8,12,4,,0.00,0,,149
2011-10-6,82,64,46,54,49,43,87,61,34,30.26,30.21,30.17,10,10,6,13,5,21,0.00,0,,118
2011-10-7,84,66,48,57,51,46,93,59,28,30.29,30.24,30.18,10,10,6,12,6,23,0.00,0,,139
2011-10-8,82,66,50,57,51,45,88,59,32,30.31,30.26,30.22,10,10,10,10,5,18,0.00,0,,159
2011-10-9,80,64,48,55,47,37,87,57,23,30.36,30.29,30.22,10,10,8,14,5,20,0.00,0,,122
2011-10-10,78,63,48,54,49,43,87,63,38,30.22,30.13,30.04,10,10,7,9,6,17,0.00,0,,123
2011-10-11,77,64,51,64,55,46,88,75,53,30.03,29.98,29.91,10,10,7,10,4,,0.01,3,,145
2011-10-12,75,64,53,63,57,52,94,84,53,29.89,29.78,29.64,10,8,2,15,5,26,0.27,5,Thunderstorm,105
2011-10-13,68,62,55,57,53,43,94,80,52,29.63,29.58,29.54,10,9,3,20,6,28,0.02,6,,293
2011-10-14,62,53,44,46,42,39,87,71,45,29.74,29.67,29.61,10,10,10,29,14,38,0.00,4,,274
2011-10-15,62,53,44,39,38,34,81,57,37,29.93,29.88,29.79,10,10,10,26,17,33,0.00,0,,267
2011-10-16,60,52,44,46,39,30,87,66,36,29.91,29.85,29.76,10,10,6,20,5,29,0.03,2,,287
2011-10-17,55,45,35,36,33,28,81,63,47,29.95,29.90,29.85,10,10,10,18,11,23,0.00,0,,257
2011-10-18,53,45,37,36,35,32,87,67,51,29.89,29.86,29.83,10,10,10,13,8,17,0.00,3,,322
2011-10-19,48,46,44,37,36,34,76,70,58,29.86,29.81,29.74,10,10,10,24,14,33,0.00,8,,353
2011-10-20,51,45,37,36,32,30,75,62,50,29.90,29.74,29.68,10,10,10,23,18,34,0.00,6,,310
2011-10-21,57,44,32,36,31,27,87,61,36,30.11,30.06,29.94,10,10,10,13,6,21,0.00,0,,285
2011-10-22,68,49,32,43,36,27,87,64,42,30.07,30.04,29.99,10,10,10,13,2,,0.00,0,,276
2011-10-23,69,51,33,45,39,30,93,64,38,30.01,29.95,29.83,10,9,3,13,2,17,0.00,2,,222
2011-10-24,66,52,37,48,40,34,93,65,30,30.15,30.06,29.90,10,9,0,13,7,16,0.01,0,,266
2011-10-25,75,58,41,55,46,36,88,64,36,30.08,29.87,29.71,10,10,10,12,6,16,0.15,4,,169
2011-10-26,53,48,44,48,41,37,87,77,66,30.02,29.93,29.77,10,10,7,15,10,20,0.00,7,,359
2011-10-27,55,45,33,37,34,28,81,64,47,30.15,30.06,29.99,10,10,10,12,5,17,0.00,4,,328
2011-10-28,57,40,24,36,28,21,93,63,31,30.19,30.13,30.04,10,10,3,15,2,22,0.00,3,,237
2011-10-29,57,42,28,34,26,21,86,59,31,30.12,30.08,30.03,10,10,10,13,7,20,0.00,0,,263
2011-10-30,55,42,30,43,32,21,82,62,46,30.09,29.98,29.89,10,10,9,17,7,29,0.02,6,,169
2011-10-31,53,42,30,39,34,27,93,76,51,30.09,30.04,29.97,10,9,0,12,4,,0.00,5,,266